Regional Weather Roundup
Issued by NWS

Home | Current Version | Previous Version | Graphics & Text | Print | Product List | Glossary On
Versions: 1 2 3 4 5 6 7 8 9 10 11 12 13 14 15 16 17 18 19 20 21 22 23 24 25 26 27 28 29 30 31 32 33 34 35 36 37 38 39 40 41 42 43 44 45 46 47 48 49 50
000
ASUS43 KMKX 270721
RWRWI

WISCONSIN REGIONAL WEATHER ROUNDUP
NATIONAL WEATHER SERVICE MILWAUKEE/SULLIVAN WI
200 AM CDT WED JUL 27 2016

NOTE: "FAIR" INDICATES FEW OR NO CLOUDS BELOW 12,000 FEET WITH NO
SIGNIFICANT WEATHER AND/OR OBSTRUCTIONS TO VISIBILITY.

WIZ001-002-006>008-014>016-023>028-270800-
NORTHWEST WISCONSIN

CITY           SKY/WX    TMP DP  RH WIND       PRES   REMARKS
SUPERIOR ARPT  RAIN      67  63  86 N3        29.94F
ASHLAND        CLOUDY    71  68  90 SW5       29.96F
HAYWARD        LGT RAIN  67  65  93 S5        29.98F
SIREN          CLOUDY    70  63  78 CALM      29.98F
CUMBERLAND     CLOUDY    66  63  88 CALM      29.98F
RICE LAKE      CLOUDY    69  64  84 CALM      29.99F
CHETEK         CLOUDY    69  66  92 CALM      29.99F
LADYSMITH      CLOUDY    66  63  88 CALM      30.02F
EAU CLAIRE     PTCLDY    70  67  90 CALM      29.98F
MENOMONIE      PTCLDY    70  65  86 CALM      29.99F
NEW RICHMOND   CLOUDY    68  64  88 CALM      29.98F
OSCEOLA        PTCLDY    68  67  98 SE5       29.99F
$$

WIZ003>005-009-010-017-018-270800-
NORTH CENTRAL WISCONSIN

CITY           SKY/WX    TMP DP  RH WIND       PRES   REMARKS
MANITOWISH WTR TSTM      68  68 100 CALM      30.01S
ARBOR VITAE    LGT RAIN  64  62  91 E9        30.01F
WOODRUFF       LGT RAIN  64  62  91 E9        30.01F
RHINELANDER    LGT RAIN  66  59  78 N10G17    30.01F
EAGLE RIVER    LGT RAIN  63  61  93 NW10      30.06R
LAND O LAKES   CLOUDY    64  61  90 SW8G24    30.06R
PHILLIPS       CLOUDY    66  66 100 CALM      30.00S
TOMAHAWK       MOCLDY    63  61  94 CALM      30.01F
MEDFORD        CLEAR     65  65 100 CALM      30.01F
MERRILL        PTCLDY    68  62  81 CALM      30.01F
$$

WIZ029-030-035-036-043>047-270800-
CENTRAL WISCONSIN

CITY           SKY/WX    TMP DP  RH WIND       PRES   REMARKS
WAUSAU         CLEAR     72  67  84 NW7       29.99S
MOSINEE        CLEAR     70  68  94 W5        30.01F
MARSHFIELD     CLEAR     71  66  84 W3        30.01S
STEVENS POINT  PTCLDY    72  66  80 SW7       30.00F
WAUPACA        CLOUDY    75  69  81 W6        29.98F
WAUTOMA        PTCLDY    69  67  93 CALM      30.00F
WISC RAPIDS    MOCLDY    71  65  81 SW5       30.01F
CAMP DOUGLAS   CLEAR     64  63  94 CALM      30.00F
$$

WIZ011>013-019>022-031-037>040-048>050-270800-
NORTHEAST WISCONSIN

CITY           SKY/WX    TMP DP  RH WIND       PRES   REMARKS
ANTIGO         PTCLDY    69  62  78 NW7       30.02S
SHAWANO        PTCLDY    76  67  75 W5        29.97S
OCONTO         CLEAR     70  70 100 CALM      29.94F
STURGEON BAY   MOCLDY    75  69  81 W8        29.96R
GREEN BAY      CLEAR     72  70  93 W7        29.96S
MANITOWOC      CLEAR     74  65  73 W6        29.97S
APPLETON       CLEAR     72  64  78 W6        29.97S
CLINTONVILLE   CLEAR     72  64  78 W3        29.98S
OSHKOSH        CLEAR     73  66  78 W5        29.98S
$$

WIZ032>034-041-042-053>061-270800-
SOUTHWEST WISCONSIN

CITY           SKY/WX    TMP DP  RH WIND       PRES   REMARKS
LA CROSSE      PTCLDY    72  70  93 CALM      29.99S
SPARTA         CLEAR     64  63  98 CALM      30.02S
VIROQUA        CLEAR     68  66  94 SW3       30.02S
BOSCOBEL       PTCLDY    66  65  96 CALM      30.00S FOG
PRAIRIE DU CHI CLEAR     67  64  92 CALM      30.01R
PLATTEVILLE    CLEAR     69  67  93 CALM      30.02S
$$

WIZ056-057-062-063-064-067-068-270800-
SOUTH CENTRAL WISCONSIN

CITY           SKY/WX    TMP DP  RH WIND       PRES   REMARKS
REEDSBURG      CLEAR     67  67 100 CALM      30.00S
BARABOO/DELLS  CLEAR     67  63  86 CALM      30.01F
LONE ROCK      CLEAR     64  63  96 CALM      30.01S
MINERAL POINT  CLEAR     72  66  83 CALM      30.02S
MADISON        CLEAR     66  64  93 MISG      30.00F
MIDDLETON      CLEAR     66  65  97 CALM      30.02S
WATERTOWN      CLEAR     66  66 100 CALM      30.00F
MONROE         CLEAR     72  63  73 W7        30.01F
JANESVILLE     CLEAR     68  66  94 CALM      30.00S
$$

WIZ051-052-058>065-066-070>072-270800-
SOUTHEAST WISCONSIN

CITY           SKY/WX    TMP DP  RH WIND       PRES   REMARKS
MILWAUKEE      CLEAR     75  65  70 CALM      29.99S
WAUKESHA       CLEAR     64  63  94 CALM      30.02R
MILWAUKEE/TIMM CLEAR     70  59  68 CALM      30.01R
RACINE         CLEAR     72  63  73 SW5       30.01S
BURLINGTON     CLEAR     63  62  97 CALM      30.00S
KENOSHA        CLEAR     66  62  87 S3        30.00F
FOND DU LAC    CLEAR     70  65  84 SW5       29.99F
SHEBOYGAN      CLEAR     68  64  87 SW6       29.98F
WEST BEND      CLEAR     64  63  94 CALM      30.00F
JUNEAU         CLEAR     67  65  93 CALM      30.01F
$$

LSZ147-162-270800-
LAKE SUPERIOR

STATION/POSITION TIME  TEMP    WIND        PRES    WAVE
                       AIR SEA DIR/SP/G            HT/PER
                 (UTC) (F)     (DEG/KT/KT) (MB)    (FT/S)
W MID LAKE BUOY  0650   65 61  360/  6/  8 1013.9R   0
DEVILS ISLAND    0700   70      10/  7/  8 1013.8F
PORT WING        0600   73     200/  3/  7 1014.6S
SAXON HARBOR     0600   75     200/  5/  9 1014.2S
$$

LMZ867-665-643>646-270800-
LAKE MICHIGAN

STATION/POSITION TIME  TEMP    WIND        PRES    WAVE
                       AIR SEA DIR/SP/G            HT/PER
                 (UTC) (F)     (DEG/KT/KT) (MB)    (FT/S)
CHAMBERS ISLAND  0600   74     220/  3/  4 1013.5S
S GREEN BAY BUOY 0700   72 74   20/  2/  2   N/A
N MID LAKE BUOY  0650   71 69  260/  8/ 10 1012.6R   2/ 5
NORTHPORT PIER   0600   76     290/  7/ 12 1013.2S
SISTER BAY       0621   75     310/  6/  7   N/A
ALGOMA LAKESHORE 0613          250/  8/ 10   N/A
KEWAUNEE LAKESHO 0600   76     260/  6/  9 1013.7F
SHEBOYGAN LAKESH 0700   74     250/  9/ 10 1014.8F
PORT WASHINGTON  0600   68     270/  3/  3 1016.3S
ATWATER BUOY     0700   68 55  350/  2/  2 1017.1S
MILWAUKEE LAKESH 0610   74     220/  2/  4   N/A
S MID LAKE BUOY  0650   75 76  190/  6/  6 1014.8F   0
KENOSHA   LAKESH 0700   75     240/  4/  7 1015.2F
$$

TC  - TEMPERATURE IN CELSIUS
VSB - VISIBILITY IN STATUTE MILES
WCI - WIND CHILL INDEX
HX  - HEAT INDEX





USA.gov is the U.S. government's official web portal to all federal, state and local government web resources and services.